1 Minute Report
Date Time Wind Direction Wind Speed Wind Gust Wind Variable Altimeter Temperature Dewpoint Relative Humidity Visibility Ceiling Precip Present Weather Density Alt Wind Chill Heat Index
18/09/22 00:16 320 08 15 N/A 30.08 70(F), 21(C) 55(F), 13(C) 60% 10 CLR N/A N/A N/A 71 F N/A 8996
18/09/22 00:15 310 09 15 N/A 30.08 70(F), 21(C) 55(F), 13(C) 60% 10 CLR N/A N/A N/A 71 F N/A 8995
18/09/22 00:14 310 10 15 N/A 30.08 70(F), 21(C) 55(F), 13(C) 60% 10 CLR N/A N/A N/A 71 F N/A 8994
18/09/22 00:13 310 10 15 N/A 30.08 70(F), 21(C) 55(F), 13(C) 60% 10 CLR N/A N/A N/A 71 F N/A 8993
18/09/22 00:12 310 10 15 N/A 30.08 70(F), 21(C) 55(F), 13(C) 60% 10 CLR N/A N/A N/A 71 F N/A 8992
18/09/22 00:11 320 09 15 N/A 30.08 70(F), 21(C) 55(F), 13(C) 60% 10 CLR N/A N/A N/A 71 F N/A 8991
18/09/22 00:10 310 09 15 N/A 30.08 71(F), 22(C) 55(F), 13(C) 57% 10 CLR N/A N/A N/A N/A 76 F 8990
18/09/22 00:09 310 09 15 N/A 30.08 71(F), 22(C) 55(F), 13(C) 57% 10 CLR N/A N/A N/A N/A 76 F 8989
18/09/22 00:08 310 10 15 N/A 30.08 71(F), 22(C) 55(F), 13(C) 57% 10 CLR N/A N/A N/A N/A 76 F 8988
18/09/22 00:07 310 11 17 N/A 30.08 71(F), 22(C) 55(F), 13(C) 57% 10 CLR N/A N/A N/A N/A 76 F 8987
18/09/22 00:06 310 10 17 N/A 30.08 71(F), 22(C) 55(F), 13(C) 57% 10 CLR N/A N/A N/A N/A 76 F 8986
18/09/22 00:05 310 10 17 N/A 30.08 71(F), 22(C) 55(F), 13(C) 57% 10 CLR N/A N/A N/A N/A 76 F 8985
18/09/22 00:04 310 10 17 N/A 30.08 71(F), 22(C) 55(F), 13(C) 57% 10 CLR N/A N/A N/A N/A 76 F 8984
18/09/22 00:03 310 09 17 N/A 30.08 71(F), 22(C) 55(F), 13(C) 57% 10 CLR N/A N/A N/A N/A 76 F 8983
18/09/22 00:02 310 10 17 N/A 30.07 71(F), 22(C) 55(F), 13(C) 57% 10 CLR N/A N/A N/A N/A 76 F 8982
18/09/22 00:01 310 11 17 N/A 30.07 71(F), 22(C) 55(F), 13(C) 57% 10 CLR N/A N/A N/A N/A 76 F 8981
18/09/22 00:00 310 11 17 N/A 30.07 71(F), 22(C) 56(F), 13(C) 57% 10 CLR N/A N/A N/A N/A 76 F 8980
18/09/21 23:59 300 11 17 N/A 30.07 71(F), 22(C) 56(F), 13(C) 57% 10 CLR N/A N/A N/A N/A 76 F 8979
18/09/21 23:58 300 11 17 N/A 30.07 72(F), 22(C) 56(F), 13(C) 57% 10 CLR N/A N/A N/A N/A 76 F 8978
18/09/21 23:57 300 10 17 N/A 30.07 72(F), 22(C) 56(F), 13(C) 57% 10 CLR N/A N/A N/A N/A 76 F 8977
18/09/21 23:56 310 10 15 N/A 30.07 72(F), 22(C) 56(F), 13(C) 57% 10 CLR N/A N/A N/A N/A 76 F 8976
18/09/21 23:55 300 11 15 N/A 30.07 72(F), 22(C) 56(F), 13(C) 57% 10 CLR N/A N/A N/A N/A 76 F 8975
18/09/21 23:54 300 10 15 N/A 30.07 72(F), 22(C) 56(F), 13(C) 57% 10 CLR N/A N/A N/A N/A 76 F 8974
18/09/21 23:53 300 08 N/A N/A 30.07 72(F), 22(C) 56(F), 13(C) 57% 10 CLR N/A N/A N/A N/A 76 F 8973
18/09/21 23:52 300 08 N/A N/A 30.06 72(F), 22(C) 56(F), 13(C) 57% 10 CLR N/A N/A N/A N/A 76 F 8972
18/09/21 23:51 300 08 N/A N/A 30.06 72(F), 22(C) 56(F), 13(C) 57% 10 CLR N/A N/A N/A N/A 76 F 8971
18/09/21 23:50 300 08 N/A N/A 30.06 72(F), 22(C) 56(F), 13(C) 57% 10 CLR N/A N/A N/A N/A 76 F 8970
18/09/21 23:49 300 07 N/A N/A 30.06 72(F), 22(C) 56(F), 13(C) 57% 10 CLR N/A N/A N/A N/A 76 F 8969
18/09/21 23:48 300 07 N/A N/A 30.06 72(F), 22(C) 56(F), 13(C) 57% 10 CLR N/A N/A N/A N/A 76 F 8968
18/09/21 23:47 300 07 N/A N/A 30.06 72(F), 22(C) 56(F), 13(C) 57% 10 CLR N/A N/A N/A N/A 76 F 8967
18/09/21 23:46 300 08 N/A N/A 30.06 72(F), 22(C) 56(F), 13(C) 57% 10 CLR N/A N/A N/A N/A 76 F 8966
18/09/21 23:45 300 08 N/A N/A 30.06 72(F), 22(C) 56(F), 13(C) 57% 10 CLR N/A N/A N/A N/A 76 F 8965
18/09/21 23:44 300 07 N/A N/A 30.06 72(F), 22(C) 56(F), 13(C) 57% 10 CLR N/A N/A N/A N/A 76 F 8964
18/09/21 23:43 300 06 N/A N/A 30.06 72(F), 22(C) 56(F), 13(C) 57% 10 CLR N/A N/A N/A N/A 76 F 8963
18/09/21 23:42 300 06 N/A N/A 30.06 73(F), 23(C) 56(F), 13(C) 53% 10 CLR N/A N/A N/A N/A 77 F 8962
18/09/21 23:41 300 06 N/A N/A 30.06 73(F), 23(C) 56(F), 13(C) 53% 10 CLR N/A N/A N/A N/A 77 F 8961
18/09/21 23:40 300 07 N/A N/A 30.06 73(F), 23(C) 56(F), 13(C) 53% 10 CLR N/A N/A N/A N/A 77 F 8960
18/09/21 23:39 300 07 N/A N/A 30.06 73(F), 23(C) 56(F), 13(C) 53% 10 CLR N/A N/A N/A N/A 77 F 8959
18/09/21 23:38 310 07 N/A N/A 30.06 73(F), 23(C) 56(F), 13(C) 53% 10 CLR N/A N/A 1900 N/A 77 F 8958
18/09/21 23:37 310 08 N/A N/A 30.05 73(F), 23(C) 56(F), 13(C) 53% 10 CLR N/A N/A 1900 N/A 77 F 8957
18/09/21 23:36 300 08 N/A N/A 30.05 73(F), 23(C) 56(F), 13(C) 53% 10 CLR N/A N/A 1900 N/A 77 F 8956
18/09/21 23:35 300 08 N/A N/A 30.05 73(F), 23(C) 56(F), 13(C) 53% 10 CLR N/A N/A 1900 N/A 77 F 8955
18/09/21 23:34 300 08 N/A N/A 30.05 73(F), 23(C) 56(F), 13(C) 53% 10 CLR N/A N/A 1900 N/A 77 F 8954
18/09/21 23:33 300 08 N/A N/A 30.05 73(F), 23(C) 56(F), 13(C) 53% 10 CLR N/A N/A 1900 N/A 77 F 8953
18/09/21 23:32 310 08 N/A N/A 30.05 73(F), 23(C) 56(F), 13(C) 53% 10 CLR N/A N/A 1900 N/A 77 F 8952
18/09/21 23:31 310 08 N/A N/A 30.05 73(F), 23(C) 55(F), 13(C) 53% 10 CLR N/A N/A 1900 N/A 77 F 8951
18/09/21 23:30 300 08 N/A N/A 30.05 73(F), 23(C) 55(F), 13(C) 53% 10 CLR N/A N/A 1900 N/A 77 F 8950
18/09/21 23:29 300 08 N/A N/A 30.04 73(F), 23(C) 55(F), 13(C) 53% 10 CLR N/A N/A 1900 N/A 77 F 8949
18/09/21 23:28 300 08 N/A N/A 30.04 73(F), 23(C) 55(F), 13(C) 53% 10 CLR N/A N/A 1900 N/A 77 F 8948
18/09/21 23:27 300 08 16 N/A 30.04 74(F), 23(C) 55(F), 13(C) 53% 10 CLR N/A N/A 2000 N/A 77 F 8947
18/09/21 23:26 300 08 16 N/A 30.04 74(F), 23(C) 55(F), 13(C) 53% 10 CLR N/A N/A 2000 N/A 77 F 8946
18/09/21 23:25 300 08 16 N/A 30.04 74(F), 23(C) 55(F), 13(C) 53% 10 CLR N/A N/A 2000 N/A 77 F 8945
18/09/21 23:24 300 08 16 N/A 30.04 74(F), 23(C) 55(F), 13(C) 53% 10 CLR N/A N/A 2000 N/A 77 F 8944
18/09/21 23:23 300 08 16 N/A 30.04 74(F), 23(C) 55(F), 13(C) 53% 10 CLR N/A N/A 2000 N/A 77 F 8943
18/09/21 23:22 300 08 16 N/A 30.04 74(F), 23(C) 55(F), 13(C) 53% 10 CLR N/A N/A 2000 N/A 77 F 8942
18/09/21 23:21 300 07 16 N/A 30.04 74(F), 23(C) 55(F), 13(C) 53% 10 CLR N/A N/A 2000 N/A 77 F 8941
18/09/21 23:20 300 07 16 N/A 30.04 74(F), 23(C) 55(F), 13(C) 53% 10 CLR N/A N/A 2000 N/A 77 F 8940
18/09/21 23:19 300 08 16 N/A 30.04 74(F), 23(C) 55(F), 13(C) 53% 10 CLR N/A N/A 2000 N/A 77 F 8939
18/09/21 23:18 300 09 16 N/A 30.03 74(F), 23(C) 55(F), 13(C) 53% 10 CLR N/A N/A 2000 N/A 77 F 8938
18/09/21 23:17 300 10 16 N/A 30.03 74(F), 23(C) 56(F), 13(C) 53% 10 CLR N/A N/A 2000 N/A 77 F 8937
18/09/21 23:16 310 09 17 N/A 30.03 75(F), 24(C) 56(F), 13(C) 50% 10 CLR N/A N/A 2100 N/A 78 F 8936
18/09/21 23:15 310 09 17 N/A 30.03 75(F), 24(C) 56(F), 13(C) 50% 10 CLR N/A N/A 2100 N/A 78 F 8935
18/09/21 23:14 310 09 17 N/A 30.03 75(F), 24(C) 56(F), 13(C) 50% 10 CLR N/A N/A 2100 N/A 78 F 8934
18/09/21 23:13 300 09 17 N/A 30.03 75(F), 24(C) 56(F), 13(C) 50% 10 CLR N/A N/A 2100 N/A 78 F 8933
18/09/21 23:12 300 09 17 N/A 30.03 75(F), 24(C) 56(F), 13(C) 50% 10 CLR N/A N/A 2100 N/A 78 F 8932
18/09/21 23:11 300 10 17 N/A 30.03 75(F), 24(C) 56(F), 13(C) 50% 10 CLR N/A N/A 2100 N/A 78 F 8931
18/09/21 23:10 300 11 17 N/A 30.03 75(F), 24(C) 56(F), 13(C) 50% 10 CLR N/A N/A 2100 N/A 78 F 8930
18/09/21 23:09 300 10 17 N/A 30.03 75(F), 24(C) 56(F), 13(C) 50% 10 CLR N/A N/A 2100 N/A 78 F 8929
18/09/21 23:08 300 09 17 N/A 30.02 75(F), 24(C) 56(F), 13(C) 50% 10 CLR N/A N/A 2100 N/A 78 F 8928
18/09/21 23:07 300 12 17 N/A 30.02 75(F), 24(C) 56(F), 13(C) 50% 10 CLR N/A N/A 2100 N/A 78 F 8927
18/09/21 23:06 300 11 17 N/A 30.02 75(F), 24(C) 56(F), 13(C) 50% 10 CLR N/A N/A 2100 N/A 78 F 8926
18/09/21 23:05 300 08 17 N/A 30.02 75(F), 24(C) 57(F), 14(C) 54% 10 CLR N/A N/A 2100 N/A 78 F 8925
18/09/21 23:04 300 09 17 N/A 30.02 75(F), 24(C) 57(F), 14(C) 54% 10 CLR N/A N/A 2100 N/A 78 F 8924
18/09/21 23:03 310 11 17 N/A 30.02 76(F), 24(C) 57(F), 14(C) 54% 10 CLR N/A N/A 2100 N/A 78 F 8923
18/09/21 23:02 310 12 17 N/A 30.02 76(F), 24(C) 57(F), 14(C) 54% 10 CLR N/A N/A 2200 N/A 78 F 8922
18/09/21 23:01 310 13 17 N/A 30.02 76(F), 24(C) 57(F), 14(C) 54% 10 CLR N/A N/A 2200 N/A 78 F 8921
18/09/21 23:00 310 11 17 N/A 30.02 76(F), 24(C) 57(F), 14(C) 54% 10 CLR N/A N/A 2200 N/A 78 F 8920
18/09/21 22:59 310 11 16 N/A 30.02 76(F), 24(C) 57(F), 14(C) 54% 10 CLR N/A N/A 2200 N/A 78 F 8919
18/09/21 22:58 310 11 16 N/A 30.01 76(F), 24(C) 57(F), 14(C) 54% 10 CLR N/A N/A 2200 N/A 78 F 8918
18/09/21 22:57 310 13 16 N/A 30.01 76(F), 24(C) 58(F), 14(C) 54% 10 CLR N/A N/A 2200 N/A 78 F 8917
18/09/21 22:56 310 12 16 N/A 30.01 75(F), 24(C) 58(F), 14(C) 54% 10 CLR N/A N/A 2100 N/A 78 F 8916
18/09/21 22:55 300 10 N/A N/A 30.01 75(F), 24(C) 59(F), 15(C) 57% 10 CLR N/A N/A 2100 N/A 77 F 8915
18/09/21 22:54 300 09 N/A N/A 30.01 75(F), 24(C) 59(F), 15(C) 57% 10 CLR N/A N/A 2100 N/A 77 F 8914
18/09/21 22:53 300 09 N/A N/A 30.01 75(F), 24(C) 59(F), 15(C) 57% 10 CLR N/A N/A 2100 N/A 77 F 8913
18/09/21 22:52 300 07 N/A N/A 30.01 76(F), 24(C) 59(F), 15(C) 57% 10 CLR N/A N/A 2200 N/A 78 F 8912
18/09/21 22:51 300 05 N/A N/A 30.01 76(F), 24(C) 59(F), 15(C) 57% 10 CLR N/A N/A 2200 N/A 78 F 8911
18/09/21 22:50 300 05 N/A N/A 30.01 76(F), 24(C) 59(F), 15(C) 57% 10 CLR N/A N/A 2200 N/A 78 F 8910
18/09/21 22:49 290 05 N/A N/A 30.01 76(F), 24(C) 60(F), 16(C) 61% 10 CLR N/A N/A 2200 N/A 78 F 8909
18/09/21 22:48 290 05 N/A N/A 30.01 76(F), 24(C) 60(F), 16(C) 61% 10 CLR N/A N/A 2200 N/A 78 F 8908
18/09/21 22:47 300 06 N/A N/A 30.01 76(F), 24(C) 60(F), 16(C) 61% 10 CLR N/A N/A 2200 N/A 78 F 8907
18/09/21 22:46 300 06 N/A N/A 30.01 76(F), 24(C) 60(F), 16(C) 61% 10 CLR N/A N/A 2200 N/A 78 F 8906
18/09/21 22:45 300 06 N/A N/A 30.01 76(F), 24(C) 60(F), 16(C) 61% 10 CLR N/A N/A 2200 N/A 78 F 8905
18/09/21 22:44 290 05 N/A N/A 30.01 76(F), 24(C) 60(F), 16(C) 61% 10 CLR N/A N/A 2200 N/A 78 F 8904
18/09/21 22:43 290 06 N/A N/A 30.00 76(F), 24(C) 60(F), 16(C) 61% 10 CLR N/A N/A 2200 N/A 78 F 8903
18/09/21 22:42 290 07 N/A N/A 30.00 76(F), 24(C) 61(F), 16(C) 61% 10 CLR N/A N/A 2200 N/A 78 F 8902
18/09/21 22:41 300 07 N/A N/A 30.00 76(F), 24(C) 61(F), 16(C) 61% 10 CLR N/A N/A 2200 N/A 78 F 8901
18/09/21 22:40 300 08 N/A N/A 30.00 76(F), 24(C) 61(F), 16(C) 61% 10 CLR N/A N/A 2200 N/A 78 F 8900
18/09/21 22:39 300 08 N/A N/A 30.00 76(F), 24(C) 61(F), 16(C) 61% 10 CLR N/A N/A 2200 N/A 78 F 8899
18/09/21 22:38 300 07 N/A N/A 30.00 76(F), 24(C) 62(F), 17(C) 65% 10 CLR N/A N/A 2200 N/A 78 F 8898
18/09/21 22:37 300 07 N/A N/A 30.00 76(F), 24(C) 62(F), 17(C) 65% 10 CLR N/A N/A 2200 N/A 78 F 8897
18/09/21 22:36 290 07 N/A N/A 30.00 76(F), 24(C) 62(F), 17(C) 65% 10 CLR N/A N/A 2200 N/A 78 F 8896
18/09/21 22:35 290 07 N/A N/A 30.00 76(F), 24(C) 62(F), 17(C) 65% 10 CLR N/A N/A 2200 N/A 78 F 8895
18/09/21 22:34 290 07 N/A N/A 30.00 76(F), 24(C) 62(F), 17(C) 65% 10 CLR N/A N/A 2200 N/A 78 F 8894
18/09/21 22:33 280 08 N/A N/A 30.00 76(F), 24(C) 62(F), 17(C) 65% 10 CLR N/A N/A 2200 N/A 78 F 8893
18/09/21 22:32 280 08 N/A N/A 30.00 76(F), 24(C) 62(F), 17(C) 65% 10 CLR N/A N/A 2200 N/A 78 F 8892
18/09/21 22:31 290 07 N/A N/A 30.00 76(F), 24(C) 62(F), 17(C) 65% 10 CLR N/A N/A 2200 N/A 78 F 8891
18/09/21 22:30 290 07 N/A N/A 30.00 76(F), 24(C) 62(F), 17(C) 65% 10 CLR N/A N/A 2200 N/A 78 F 8890
18/09/21 22:29 290 06 N/A N/A 30.00 77(F), 25(C) 62(F), 17(C) 61% 10 CLR N/A N/A 2200 N/A 79 F 8889
18/09/21 22:28 290 07 N/A N/A 30.00 77(F), 25(C) 62(F), 17(C) 61% 10 CLR N/A N/A 2200 N/A 79 F 8888
18/09/21 22:27 290 08 N/A N/A 30.00 77(F), 25(C) 62(F), 17(C) 61% 10 CLR N/A N/A 2200 N/A 79 F 8887
18/09/21 22:26 290 09 N/A N/A 30.00 77(F), 25(C) 62(F), 17(C) 61% 10 CLR N/A N/A 2200 N/A 79 F 8886
18/09/21 22:25 300 09 N/A N/A 30.00 77(F), 25(C) 62(F), 17(C) 61% 10 CLR N/A N/A 2200 N/A 79 F 8885
18/09/21 22:24 290 07 N/A N/A 30.00 77(F), 25(C) 62(F), 17(C) 61% 10 CLR N/A N/A 2200 N/A 79 F 8884
18/09/21 22:23 290 08 N/A N/A 30.00 77(F), 25(C) 62(F), 17(C) 61% 10 CLR N/A N/A 2200 N/A 79 F 8883
18/09/21 22:22 290 09 N/A N/A 30.00 77(F), 25(C) 62(F), 17(C) 61% 10 CLR N/A N/A 2200 N/A 79 F 8882
18/09/21 22:21 290 09 N/A N/A 30.00 77(F), 25(C) 62(F), 17(C) 61% 10 CLR N/A N/A 2200 N/A 79 F 8881
18/09/21 22:20 290 10 N/A N/A 30.00 77(F), 25(C) 62(F), 17(C) 61% 10 CLR N/A N/A 2200 N/A 79 F 8880
18/09/21 22:19 280 09 16 N/A 30.00 77(F), 25(C) 62(F), 17(C) 61% 10 CLR N/A N/A 2200 N/A 79 F 8879
18/09/21 22:18 290 09 16 N/A 30.00 78(F), 26(C) 62(F), 17(C) 58% 10 CLR N/A N/A 2300 N/A 80 F 8878
18/09/21 22:17 290 10 16 N/A 30.00 78(F), 26(C) 62(F), 17(C) 58% 10 CLR N/A N/A 2300 N/A 80 F 8877
18/09/21 22:16 280 10 16 N/A 30.00 78(F), 26(C) 62(F), 17(C) 58% 10 CLR N/A N/A 2300 N/A 80 F 8876